| time (UTC) | temp F | wind direction | speed MPH | gust MPH | rain 1hr in | rain 24hr in | rain mn in | humidity % | barometer mb |
| 20260506044546 | 37 | 102 | 0.0 | 1.0 | 0.00 | 0.25 | 0.00 | 97 | 1022.0 |
| 20260506043041 | 39 | 102 | 0.0 | 0.0 | 0.00 | 0.25 | 0.00 | 95 | 1021.9 |
| 20260506041538 | 39 | 102 | 0.0 | 1.0 | 0.00 | 0.25 | 0.00 | 95 | 1021.8 |
| 20260506040033 | 38 | 102 | 0.0 | 0.0 | 0.00 | 0.25 | 0.25 | 96 | 1021.5 |
| 20260506034518 | 37 | 102 | 0.0 | 1.0 | 0.00 | 0.25 | 0.25 | 98 | 1021.2 |
| 20260506033019 | 37 | 102 | 0.0 | 2.0 | 0.00 | 0.25 | 0.25 | 98 | 1021.0 |
| 20260506031516 | 37 | 102 | 0.0 | 1.0 | 0.00 | 0.25 | 0.25 | 98 | 1020.9 |
| 20260506030019 | 38 | 102 | 0.0 | 1.0 | 0.00 | 0.25 | 0.25 | 97 | 1020.7 |
| 20260506024612 | 37 | 102 | 0.0 | 2.0 | 0.00 | 0.25 | 0.25 | 97 | 1020.4 |
| 20260506023011 | 38 | 103 | 0.0 | 2.0 | 0.00 | 0.25 | 0.25 | 97 | 1020.2 |
| 20260506021512 | 0 | 0.0 | 0.0 | 0.00 | 0.25 | 0.25 | 1019.9 | ||
| 20260506020007 | 0 | 0.0 | 0.0 | 0.00 | 0.25 | 0.25 | 1019.8 | ||
| 20260506014550 | 0 | 0.0 | 0.0 | 0.00 | 0.25 | 0.25 | 1019.7 | ||
| 20260506013054 | 0 | 0.0 | 0.0 | 0.00 | 0.25 | 0.25 | 1019.4 | ||
| 20260506011542 | 0 | 0.0 | 0.0 | 0.00 | 0.25 | 0.25 | 1019.4 | ||
| 20260506010037 | 0 | 0.0 | 0.0 | 0.00 | 0.25 | 0.25 | 1019.4 | ||
| 20260506004534 | 0 | 0.0 | 0.0 | 0.00 | 0.25 | 0.25 | 1019.3 | ||
| 20260506003027 | 0 | 0.0 | 0.0 | 0.00 | 0.25 | 0.25 | 1019.3 | ||
| 20260506001523 | 0 | 0.0 | 0.0 | 0.00 | 0.25 | 0.25 | 1019.3 | ||
| 20260506000018 | 0 | 0.0 | 0.0 | 0.00 | 0.25 | 0.25 | 1019.4 | ||
| 20260505234504 | 0 | 0.0 | 0.0 | 0.00 | 0.25 | 0.25 | 1019.3 | ||
| 20260505233100 | 0 | 0.0 | 0.0 | 0.00 | 0.25 | 0.25 | 1019.4 | ||
| 20260505231607 | 0 | 0.0 | 0.0 | 0.00 | 0.25 | 0.25 | 1019.4 | ||
| 20260505230053 | 0 | 0.0 | 0.0 | 0.00 | 0.25 | 0.25 | 1019.6 | ||
| 20260505224546 | 0 | 0.0 | 0.0 | 0.00 | 0.25 | 0.25 | 1019.4 | ||
| 20260505223042 | 0 | 0.0 | 0.0 | 0.00 | 0.25 | 0.25 | 1019.6 | ||
| 20260505221539 | 0 | 0.0 | 0.0 | 0.00 | 0.25 | 0.25 | 1019.6 | ||
| 20260505220037 | 0 | 0.0 | 0.0 | 0.00 | 0.25 | 0.25 | 1019.7 | ||
| 20260505214526 | 39 | 72 | 4.0 | 10.0 | 0.00 | 0.25 | 0.25 | 95 | 1019.7 |
| 20260505213018 | 0 | 0.0 | 0.0 | 0.00 | 0.25 | 0.25 | 1019.9 | ||
| 20260505211511 | 0 | 0.0 | 0.0 | 0.00 | 0.25 | 0.25 | 1019.9 | ||
| 20260505210007 | 0 | 0.0 | 0.0 | 0.00 | 0.25 | 0.25 | 1019.9 | ||
| 20260505204502 | 0 | 0.0 | 0.0 | 0.00 | 0.25 | 0.25 | 1019.7 | ||
| 20260505203059 | 0 | 0.0 | 0.0 | 0.00 | 0.25 | 0.25 | 1019.9 | ||
| 20260505201556 | 0 | 0.0 | 0.0 | 0.00 | 0.25 | 0.25 | 1019.9 | ||
| 20260505200058 | 0 | 0.0 | 0.0 | 0.00 | 0.25 | 0.25 | 1020.0 | ||
| 20260505194533 | 0 | 0.0 | 0.0 | 0.00 | 0.25 | 0.25 | 1020.0 | ||
| 20260505193029 | 0 | 0.0 | 0.0 | 0.00 | 0.25 | 0.25 | 1020.0 | ||
| 20260505191525 | 0 | 0.0 | 0.0 | 0.00 | 0.25 | 0.25 | 1020.1 | ||
| 20260505190026 | 0 | 0.0 | 0.0 | 0.00 | 0.25 | 0.25 | 1020.2 | ||
| 20260505184516 | 0 | 0.0 | 0.0 | 0.00 | 0.25 | 0.25 | 1020.1 | ||
| 20260505183012 | 0 | 0.0 | 0.0 | 0.00 | 0.25 | 0.25 | 1019.9 | ||
| 20260505181508 | 0 | 0.0 | 0.0 | 0.00 | 0.25 | 0.25 | 1019.9 | ||
| 20260505180005 | 0 | 0.0 | 0.0 | 0.00 | 0.25 | 0.25 | 1019.9 | ||
| 20260505174557 | 0 | 0.0 | 0.0 | 0.00 | 0.25 | 0.25 | 1019.9 | ||
| 20260505173043 | 0 | 0.0 | 0.0 | 0.00 | 0.25 | 0.25 | 1019.6 | ||
| 20260505171545 | 0 | 0.0 | 0.0 | 0.00 | 0.25 | 0.25 | 1019.4 | ||
| 20260505170036 | 0 | 0.0 | 0.0 | 0.00 | 0.25 | 0.25 | 1019.4 | ||
| 20260505164534 | 37 | 43 | 5.0 | 11.0 | 0.01 | 0.25 | 0.25 | 97 | 1019.2 |
| 20260505163032 | 37 | 91 | 6.0 | 12.0 | 0.01 | 0.25 | 0.25 | 97 | 1019.1 |
| 20260505161529 | 37 | 52 | 5.0 | 11.0 | 0.01 | 0.25 | 0.25 | 97 | 1019.0 |
| 20260505153009 | 38 | 72 | 6.0 | 13.0 | 0.00 | 0.24 | 0.24 | 96 | 1018.8 |
| 20260505151603 | 37 | 66 | 3.0 | 8.0 | 0.00 | 0.24 | 0.24 | 97 | 1018.6 |
| 20260505124522 | 36 | 76 | 3.0 | 9.0 | 0.00 | 0.20 | 0.20 | 98 | 1018.0 |
| 20260505123019 | 37 | 76 | 1.0 | 7.0 | 0.05 | 0.20 | 0.20 | 98 | 1018.1 |
| 20260505121600 | 36 | 73 | 2.0 | 7.0 | 0.05 | 0.20 | 0.20 | 98 | 1018.1 |
| 20260505120059 | 37 | 65 | 4.0 | 10.0 | 0.05 | 0.20 | 0.20 | 98 | 1018.1 |
| 20260505114602 | 38 | 65 | 4.0 | 8.0 | 0.06 | 0.20 | 0.20 | 98 | 1018.1 |
| 20260505113040 | 38 | 103 | 3.0 | 11.0 | 0.03 | 0.15 | 0.15 | 98 | 1018.1 |
| 20260505111539 | 38 | 68 | 5.0 | 12.0 | 0.05 | 0.15 | 0.15 | 98 | 1018.2 |
| 20260505101545 | 37 | 10 | 5.0 | 10.0 | 0.02 | 0.10 | 0.10 | 98 | 1018.0 |
| 20260505100037 | 37 | 77 | 3.0 | 10.0 | 0.01 | 0.09 | 0.09 | 98 | 1018.0 |
| 20260505094526 | 38 | 74 | 6.0 | 12.0 | 0.00 | 0.08 | 0.08 | 98 | 1018.2 |
| 20260505093016 | 38 | 75 | 5.0 | 11.0 | 0.00 | 0.08 | 0.08 | 98 | 1018.3 |
| 20260505091513 | 38 | 58 | 6.0 | 11.0 | 0.00 | 0.08 | 0.08 | 98 | 1018.4 |
| 20260505090018 | 37 | 44 | 5.0 | 9.0 | 0.00 | 0.08 | 0.08 | 98 | 1018.7 |
| 20260505084512 | 37 | 66 | 3.0 | 8.0 | 0.00 | 0.08 | 0.08 | 98 | 1018.9 |
| 20260505083016 | 36 | 70 | 2.0 | 6.0 | 0.00 | 0.08 | 0.08 | 98 | 1019.2 |
| 20260505081508 | 35 | 85 | 2.0 | 7.0 | 0.00 | 0.08 | 0.08 | 97 | 1019.3 |
| 20260505080006 | 35 | 70 | 2.0 | 8.0 | 0.02 | 0.08 | 0.08 | 97 | 1019.2 |
| 20260505074503 | 36 | 113 | 4.0 | 8.0 | 0.04 | 0.08 | 0.08 | 98 | 1019.5 |
| 20260505073131 | 37 | 68 | 4.0 | 9.0 | 0.05 | 0.08 | 0.08 | 98 | 1019.4 |
| 20260505070103 | 37 | 91 | 2.0 | 8.0 | 0.03 | 0.06 | 0.06 | 98 | 1019.4 |
| 20260505064554 | 37 | 282 | 2.0 | 9.0 | 0.02 | 0.04 | 0.04 | 97 | 1019.4 |
| 20260505063051 | 37 | 208 | 3.0 | 15.0 | 0.01 | 0.03 | 0.03 | 97 | 1019.6 |
| 20260505060040 | 38 | 74 | 3.0 | 9.0 | 0.01 | 0.03 | 0.03 | 97 | 1019.7 |